[[{"header":{"parameterUnit":"m.s-1","parameterCategory":1,"la1":30.2991,"la2":30.254,"lo1":-89.0895,"lo2":-89.0444,"dy":0.0017,"dx":0.0017,"nx":28,"ny":28,"refTime":"2024-11-30T03:00:00:Z","depth":0,"parameterNumber":2,"parameterNumberName":"U-component_of_WINDS"},"data":[0,0,0,0,0,0,0,0,0,0,0,0,0,0,0,0,0,0,0,0,0,0,0,0,0,0,0,0,0,0,0,0,0,0,0,0,0,0,0,0,0,0,0,0,0,0,0,0,0,0,0,0,0,0,0,0,0,0,-0.493,-0.493,0,-0.4916,-0.4916,-0.4916,-0.4885,-0.4885,-0.4884,-0.4883,-0.487,-0.487,-0.487,0,0,0,0,0,0,0,0,0,0,0,0,0,-0.4931,-0.4931,-0.493,-0.493,-0.493,-0.4916,-0.4916,-0.4916,-0.4885,-0.4884,-0.4884,-0.4883,-0.4869,-0.487,-0.487,0,0,0,0,0,0,0,0,0,0,0,0,0,-0.4925,-0.4931,-0.493,-0.4913,-0.4911,-0.4916,-0.4916,-0.4916,-0.4885,-0.4884,-0.4884,-0.4883,-0.4869,-0.487,-0.487,-0.4891,0,0,-0.4871,-0.4871,0,0,0,0,0,0,0,0,-0.4926,-0.4925,-0.4916,-0.4914,-0.4912,-0.4901,-0.4911,-0.4907,-0.4886,-0.4895,-0.4883,-0.4882,-0.4881,-0.488,-0.488,-0.489,-0.4889,-0.4871,-0.4871,-0.4871,-0.4871,0,0,0,0,0,0,0,-0.4926,-0.4926,-0.4925,-0.4916,-0.4914,-0.4906,-0.4904,-0.491,-0.4894,-0.4894,-0.4892,-0.4891,-0.488,-0.4879,-0.4879,-0.4889,-0.4871,-0.4871,-0.4872,-0.4872,-0.4914,-0.4915,0,0,0,0,0,0,-0.4929,-0.4926,-0.4925,-0.4924,-0.4917,-0.4907,-0.4905,-0.4906,-0.4893,-0.4891,-0.4892,-0.4889,-0.4879,-0.4879,-0.4879,-0.4901,-0.4871,-0.4872,-0.4872,-0.4913,-0.4914,-0.4916,0,0,0,0,0,0,-0.4929,-0.4929,-0.4926,-0.4925,-0.4924,-0.4908,-0.4909,-0.4906,-0.4906,-0.4891,-0.4888,-0.4894,-0.4879,-0.4878,-0.4887,-0.49,-0.4872,-0.4872,-0.4912,-0.4914,-0.4915,-0.4947,0,0,0,0,0,0,-0.4929,-0.4929,-0.4937,-0.4925,-0.4924,-0.4935,-0.491,-0.4906,-0.4906,-0.4903,-0.4893,-0.489,-0.4878,-0.4887,-0.4888,-0.49,-0.4872,-0.4911,-0.4913,-0.4915,-0.4945,-0.495,-0.4954,0,0,0,0,0,-0.4929,-0.4947,-0.4938,-0.4938,-0.4933,-0.4936,-0.4935,-0.492,-0.4907,-0.4915,-0.4905,-0.4891,-0.4899,-0.4888,-0.4889,-0.4902,-0.491,-0.4912,-0.4914,-0.4943,-0.4949,-0.4954,0,0,0,0,0,0,-0.4962,-0.4946,-0.4935,-0.4949,-0.4944,-0.4931,-0.494,-0.4927,-0.4926,-0.4923,-0.4904,-0.4902,-0.4914,-0.4909,-0.4898,-0.492,-0.4902,-0.4904,-0.4924,-0.4929,-0.4933,-0.4934,-0.4873,0,0,0,0,0,-0.4971,-0.4975,-0.496,-0.4974,-0.4972,-0.4956,-0.4957,-0.4946,-0.494,-0.4938,-0.4929,-0.4924,-0.4925,-0.4927,-0.4927,-0.4944,-0.4941,-0.4952,-0.4957,-0.496,-0.4963,-0.497,-0.4975,-0.4922,-0.4922,-0.4922,0,0,-0.499,-0.4981,-0.4985,-0.498,-0.4975,-0.4979,-0.4955,-0.4961,-0.4963,-0.4939,-0.4947,-0.494,-0.4933,-0.4946,-0.4952,-0.4942,-0.4977,-0.4963,-0.4966,-0.4967,-0.4973,-0.4978,-0.4983,-0.4924,-0.4924,-0.4923,0,0,-0.5026,-0.502,-0.503,-0.5025,-0.5017,-0.5006,-0.5009,-0.4997,-0.4992,-0.4999,-0.4981,-0.4983,-0.4986,-0.4982,-0.498,-0.5012,-0.4998,-0.5013,-0.5036,-0.5043,-0.5047,-0.5051,-0.5062,-0.5067,-0.5015,-0.5015,-0.5015,0,-0.505,-0.5055,-0.5038,-0.5044,-0.5043,-0.5019,-0.503,-0.5026,-0.5019,-0.5018,-0.5007,-0.5009,-0.5003,-0.5014,-0.5022,-0.5021,-0.5023,-0.5014,-0.5048,-0.5052,-0.5055,-0.5065,-0.507,-0.5017,-0.5017,-0.5017,-0.5016,0,-0.5086,-0.5089,-0.5099,-0.5092,-0.5091,-0.51,-0.5083,-0.5085,-0.5073,-0.5063,-0.5071,-0.5062,-0.506,-0.5061,-0.505,-0.5071,-0.5065,-0.5051,-0.5033,-0.5062,-0.5072,-0.5076,-0.502,-0.5019,-0.5018,-0.5018,0,0,-0.5144,-0.5125,-0.5129,-0.5125,-0.5114,-0.5116,-0.5123,-0.512,-0.5122,-0.5117,-0.5122,-0.5124,-0.5111,-0.5109,-0.5097,-0.5103,-0.5129,-0.5089,-0.5088,-0.5097,-0.5151,-0.5161,-0.5167,-0.5119,-0.512,-0.5121,-0.5151,0,-0.5177,-0.5188,-0.5172,-0.5187,-0.5189,-0.5167,-0.5172,-0.5166,-0.5157,-0.5158,-0.5147,-0.5149,-0.5131,-0.513,-0.5135,-0.5125,-0.514,-0.5122,-0.5124,-0.5125,-0.5127,-0.5172,-0.5183,-0.5213,-0.5155,-0.5156,-0.5156,0,-0.5219,-0.5215,-0.523,-0.5216,-0.5217,-0.5223,-0.5218,-0.5219,-0.5211,-0.5204,-0.5201,-0.5186,-0.5191,-0.5172,-0.5179,-0.5168,-0.5167,-0.5162,-0.5163,-0.5163,-0.5143,-0.5173,-0.5222,-0.5226,-0.5162,-0.5161,-0.5161,0,-0.526,-0.5258,-0.5267,-0.5264,-0.5249,-0.5253,-0.5247,-0.5237,-0.5236,-0.5232,-0.5231,-0.5228,-0.5227,-0.5224,-0.5209,-0.5196,-0.5217,-0.5197,-0.5212,-0.5212,-0.5218,-0.5218,-0.5267,-0.5217,-0.5217,-0.5217,-0.5216,0,-0.53,-0.531,-0.5285,-0.529,-0.53,-0.5281,-0.5292,-0.5283,-0.5274,-0.5277,-0.5257,-0.5261,-0.5239,-0.524,-0.5228,-0.5235,-0.5235,-0.5229,-0.5226,-0.5231,-0.5232,-0.5231,-0.5229,-0.5218,-0.5217,-0.5217,-0.5217,0,-0.5348,-0.5332,-0.5339,-0.5323,-0.5319,-0.5328,-0.5314,-0.5318,-0.5306,-0.5311,-0.531,-0.5293,-0.5292,-0.5276,-0.5273,-0.5264,-0.5277,-0.527,-0.528,-0.5278,-0.5293,-0.5292,-0.5344,-0.535,-0.5295,-0.5296,-0.5296,0,-0.5375,-0.5382,-0.5366,-0.5366,-0.5361,-0.5362,-0.536,-0.5341,-0.534,-0.533,-0.5335,-0.5333,-0.533,-0.5331,-0.5318,-0.5315,-0.5307,-0.5326,-0.5307,-0.5312,-0.5308,-0.5308,-0.5308,-0.533,-0.5331,-0.5331,-0.5332,0,-0.5424,-0.5415,-0.5414,-0.5409,-0.5408,-0.5403,-0.5398,-0.5399,-0.5377,-0.5377,-0.5377,-0.5374,-0.537,-0.5368,-0.5362,-0.5356,-0.534,-0.5338,-0.5341,-0.5347,-0.5352,-0.5349,-0.5291,-0.5337,-0.5336,-0.5336,-0.5336,-0.5335,-0.5462,-0.5467,-0.5457,-0.5455,-0.5449,-0.5443,-0.5446,-0.5434,-0.5433,-0.5428,-0.5416,-0.5417,-0.5407,-0.5398,-0.5392,-0.5392,-0.5383,-0.5388,-0.5389,-0.539,-0.5393,-0.5352,-0.5391,-0.5391,-0.5391,-0.5391,-0.5391,0,-0.5511,-0.5502,-0.5501,-0.5494,-0.5492,-0.5477,-0.5469,-0.5469,-0.547,-0.5462,-0.5459,-0.5458,-0.5455,-0.5441,-0.5437,-0.544,-0.5433,-0.5439,-0.5439,-0.5438,-0.5402,-0.54,-0.5445,-0.5445,-0.5445,-0.5445,-0.5445,-0.5445,-0.5536,-0.5543,-0.5533,-0.5536,-0.5528,-0.5528,-0.5525,-0.552,-0.5513,-0.5512,-0.551,-0.55,-0.5489,-0.5484,-0.5481,-0.5477,-0.5476,-0.5486,-0.5479,-0.5446,-0.5441,-0.5436,-0.5434,-0.5486,-0.5486,-0.5515,-0.5515,-0.5516]},{"header":{"parameterUnit":"m.s-1","parameterCategory":1,"la1":30.2991,"la2":30.254,"lo1":-89.0895,"lo2":-89.0444,"dy":0.0017,"dx":0.0017,"nx":28,"ny":28,"refTime":"2024-11-30T03:00:00:Z","depth":0,"parameterNumber":3,"parameterNumberName":"V-component_of_WINDS"},"data":[0,0,0,0,0,0,0,0,0,0,0,0,0,0,0,0,0,0,0,0,0,0,0,0,0,0,0,0,0,0,0,0,0,0,0,0,0,0,0,0,0,0,0,0,0,0,0,0,0,0,0,0,0,0,0,0,0,0,-7.9868,-7.987,0,-7.9975,-7.9976,-7.9977,-7.9915,-7.9912,-7.9909,-7.9906,-8.0008,-8.0014,-8.0019,0,0,0,0,0,0,0,0,0,0,0,0,0,-7.9606,-7.9611,-7.9868,-7.987,-7.9871,-7.9974,-7.9976,-7.9977,-7.9915,-7.9912,-7.9908,-7.9905,-8.0006,-8.0013,-8.002,0,0,0,0,0,0,0,0,0,0,0,0,0,-7.9717,-7.9613,-7.9868,-7.9853,-7.9852,-7.9974,-7.9976,-7.9978,-7.9916,-7.9912,-7.9907,-7.9903,-8.0004,-8.0012,-8.002,-8.0161,0,0,-8.0046,-8.0049,0,0,0,0,0,0,0,0,-7.971,-7.9726,-7.9854,-7.9854,-7.9854,-7.9927,-7.9921,-8.0039,-7.9917,-7.9892,-7.9906,-7.9901,-7.9984,-7.9994,-8.0024,-8.0166,-8.017,-8.0046,-8.0051,-8.0055,-8.0057,0,0,0,0,0,0,0,-7.9703,-7.9721,-7.991,-7.9855,-7.9856,-7.9839,-7.9849,-7.9943,-7.9962,-7.9894,-7.9889,-7.9903,-7.9983,-8.0016,-8.0025,-8.0172,-8.0046,-8.0054,-8.0059,-8.0062,-8.0436,-8.0441,0,0,0,0,0,0,-7.9697,-7.9715,-7.9907,-7.9913,-7.977,-7.9847,-7.9859,-7.9908,-7.9961,-7.9964,-7.9907,-7.99,-8.0004,-8.0016,-8.0029,-8.0198,-8.0055,-8.0063,-8.0067,-8.0431,-8.0437,-8.0442,0,0,0,0,0,0,-7.9692,-7.9715,-7.9902,-7.9813,-7.9836,-7.9856,-7.9912,-7.9912,-7.9945,-7.9971,-7.9973,-7.9937,-8.0001,-8.0017,-8.0129,-8.02,-8.0066,-8.0074,-8.0425,-8.0433,-8.044,-8.0537,0,0,0,0,0,0,-7.9684,-7.9713,-7.9768,-7.9815,-7.9841,-8.0003,-7.9916,-7.9918,-7.996,-7.9952,-7.9999,-8.0003,-7.9999,-8.0118,-8.0138,-8.0209,-8.008,-8.0419,-8.0428,-8.0437,-8.0527,-8.0547,-8.0563,0,0,0,0,0,-7.9675,-7.979,-7.9771,-7.9795,-7.9911,-8.0008,-8.0022,-8.0017,-7.9966,-8.0021,-8.0037,-8.0001,-8.019,-8.013,-8.0152,-8.0227,-8.0414,-8.0426,-8.0437,-8.0519,-8.0543,-8.0563,0,0,0,0,0,0,-7.9748,-7.9795,-7.9776,-7.9909,-7.9955,-7.9997,-8.0066,-8.0042,-8.0101,-8.0091,-8.0079,-8.0091,-8.0208,-8.0228,-8.0161,-8.0366,-8.0294,-8.031,-8.0349,-8.0372,-8.0389,-8.0382,-8.0087,0,0,0,0,0,-7.978,-7.9857,-7.9893,-8.0007,-8.0032,-8.0045,-8.0087,-8.0079,-8.0125,-8.0144,-8.0169,-8.0213,-8.0282,-8.0328,-8.0393,-8.053,-8.0539,-8.0593,-8.0611,-8.0625,-8.0639,-8.0714,-8.0738,-8.0479,-8.0479,-8.0479,0,0,-7.9845,-7.9881,-7.993,-8.0023,-8.0057,-8.0136,-8.0062,-8.0147,-8.0205,-8.0156,-8.0264,-8.0284,-8.0333,-8.0459,-8.0515,-8.0479,-8.0713,-8.0639,-8.0651,-8.0657,-8.0728,-8.0752,-8.0774,-8.0487,-8.0485,-8.0484,0,0,-8.0006,-8.0041,-8.014,-8.0177,-8.0232,-8.024,-8.0264,-8.0311,-8.0323,-8.0432,-8.0398,-8.0464,-8.0584,-8.062,-8.0655,-8.0831,-8.08,-8.0852,-8.0945,-8.1018,-8.1038,-8.1056,-8.1119,-8.1142,-8.0866,-8.0866,-8.0866,0,-8.008,-8.0199,-8.0193,-8.0283,-8.0325,-8.0287,-8.0387,-8.0422,-8.0494,-8.0523,-8.0483,-8.0633,-8.0663,-8.0797,-8.084,-8.0869,-8.0895,-8.0846,-8.1036,-8.1054,-8.1071,-8.1131,-8.1155,-8.0872,-8.0871,-8.0871,-8.087,0,-8.0288,-8.0371,-8.0444,-8.0518,-8.0568,-8.0662,-8.0669,-8.072,-8.0708,-8.072,-8.0832,-8.0867,-8.0939,-8.097,-8.0958,-8.1103,-8.1079,-8.1038,-8.0964,-8.1102,-8.1158,-8.1181,-8.0881,-8.0879,-8.0877,-8.0875,0,0,-8.0495,-8.0567,-8.0594,-8.0628,-8.0686,-8.0749,-8.0841,-8.0914,-8.0958,-8.1009,-8.1085,-8.1188,-8.1151,-8.1189,-8.1181,-8.1245,-8.1383,-8.1196,-8.1197,-8.123,-8.1544,-8.1575,-8.1602,-8.1363,-8.1367,-8.1371,-8.154,0,-8.066,-8.0823,-8.0822,-8.0973,-8.1049,-8.1015,-8.1095,-8.1138,-8.1153,-8.1218,-8.1232,-8.1306,-8.1251,-8.1274,-8.1336,-8.1353,-8.1446,-8.1341,-8.1432,-8.1436,-8.1422,-8.1631,-8.1664,-8.1822,-8.1562,-8.1566,-8.1569,0,-8.0873,-8.0935,-8.1094,-8.1142,-8.1174,-8.1247,-8.1314,-8.1377,-8.1425,-8.1431,-8.1476,-8.1458,-8.155,-8.1475,-8.1601,-8.153,-8.1567,-8.1581,-8.1587,-8.1595,-8.151,-8.1645,-8.1873,-8.1897,-8.1603,-8.16,-8.1598,0,-8.1009,-8.1131,-8.1243,-8.1272,-8.1332,-8.1383,-8.141,-8.1454,-8.1499,-8.1556,-8.1585,-8.1652,-8.1689,-8.174,-8.174,-8.1686,-8.1868,-8.1792,-8.1874,-8.1875,-8.1914,-8.1911,-8.2151,-8.1938,-8.1938,-8.1937,-8.1937,0,-8.1193,-8.1291,-8.1305,-8.1374,-8.1483,-8.148,-8.1588,-8.1609,-8.1649,-8.172,-8.1693,-8.176,-8.1756,-8.1823,-8.1824,-8.1928,-8.1944,-8.1951,-8.195,-8.1953,-8.1953,-8.1977,-8.1966,-8.1944,-8.1942,-8.1941,-8.194,0,-8.1363,-8.1376,-8.1496,-8.1543,-8.1557,-8.1636,-8.1675,-8.174,-8.1752,-8.1842,-8.1863,-8.1881,-8.1959,-8.1965,-8.2054,-8.2054,-8.2181,-8.2167,-8.2166,-8.2163,-8.2245,-8.2237,-8.2509,-8.2544,-8.2308,-8.231,-8.2312,0,-8.1479,-8.1555,-8.1612,-8.1659,-8.1689,-8.1765,-8.1811,-8.181,-8.1859,-8.1921,-8.1977,-8.2053,-8.2114,-8.2239,-8.2259,-8.2327,-8.2315,-8.2406,-8.2325,-8.2327,-8.2317,-8.2312,-8.232,-8.2421,-8.2424,-8.2426,-8.2428,0,-8.1685,-8.1688,-8.1757,-8.1829,-8.1885,-8.1941,-8.1993,-8.2032,-8.2038,-8.2093,-8.2174,-8.2222,-8.2314,-8.2389,-8.2456,-8.2481,-8.2455,-8.2453,-8.2476,-8.248,-8.2476,-8.248,-8.2208,-8.2447,-8.2445,-8.2443,-8.2442,-8.2442,-8.1832,-8.1898,-8.1949,-8.2027,-8.2066,-8.2116,-8.2179,-8.2201,-8.2269,-8.2346,-8.2341,-8.243,-8.2476,-8.2564,-8.2595,-8.2663,-8.2632,-8.2665,-8.2673,-8.2681,-8.269,-8.2466,-8.2675,-8.2674,-8.2674,-8.2673,-8.2673,0,-8.2036,-8.2068,-8.2139,-8.2215,-8.2276,-8.2249,-8.2305,-8.2358,-8.2437,-8.2484,-8.2545,-8.2638,-8.2711,-8.2738,-8.2809,-8.2858,-8.2849,-8.2877,-8.2873,-8.2879,-8.2713,-8.2687,-8.2884,-8.2884,-8.2884,-8.2884,-8.2884,-8.2884,-8.2149,-8.2261,-8.227,-8.24,-8.243,-8.252,-8.2554,-8.26,-8.2637,-8.2743,-8.2805,-8.2823,-8.2861,-8.2935,-8.3001,-8.3006,-8.3033,-8.3067,-8.3068,-8.2912,-8.2891,-8.2871,-8.2846,-8.3073,-8.3073,-8.3228,-8.323,-8.3231]}]]